Time,TemperatureF,DewpointF,PressureIn,WindDirection,WindDirectionDegrees,WindSpeedMPH,WindSpeedGustMPH,Humidity,HourlyPrecipIn,Conditions,Clouds,dailyrainin,SoftwareType,DateUTC
2013-01-22 00:12:00,51.0,44.0,30.17,NNE,21,5.0,8.0,76,0.00,,,0.01,weatherlink.com 1.10,2013-01-22 06:12:00,
2013-01-22 00:27:00,50.6,44.0,30.18,NNE,15,6.0,9.0,77,0.00,,,0.01,weatherlink.com 1.10,2013-01-22 06:27:00,
2013-01-22 00:43:00,50.2,43.0,30.18,North,11,6.0,9.0,77,0.00,,,0.01,weatherlink.com 1.10,2013-01-22 06:43:00,
2013-01-22 00:57:00,49.9,43.0,30.18,NNE,15,6.0,10.0,77,0.00,,,0.01,weatherlink.com 1.10,2013-01-22 06:57:00,
2013-01-22 01:12:00,49.4,42.0,30.18,NNE,15,6.0,10.0,76,0.00,,,0.01,weatherlink.com 1.10,2013-01-22 07:12:00,
2013-01-22 01:27:00,49.2,42.0,30.19,North,11,6.0,10.0,75,0.00,,,0.01,weatherlink.com 1.10,2013-01-22 07:27:00,
2013-01-22 01:43:00,48.8,41.0,30.19,NNE,24,3.0,8.0,74,0.00,,,0.01,weatherlink.com 1.10,2013-01-22 07:43:00,
2013-01-22 01:58:00,48.5,40.0,30.19,NNE,26,4.0,9.0,73,0.00,,,0.01,weatherlink.com 1.10,2013-01-22 07:58:00,
2013-01-22 02:13:00,48.1,39.0,30.20,NNE,18,2.0,9.0,72,0.00,,,0.01,weatherlink.com 1.10,2013-01-22 08:13:00,
2013-01-22 02:28:00,47.6,39.0,30.21,NNE,24,6.0,9.0,72,0.00,,,0.01,weatherlink.com 1.10,2013-01-22 08:28:00,
2013-01-22 02:43:00,47.2,39.0,30.20,NNE,25,5.0,11.0,72,0.00,,,0.01,weatherlink.com 1.10,2013-01-22 08:43:00,
2013-01-22 02:59:00,46.7,38.0,30.20,NNE,31,2.0,9.0,72,0.00,,,0.01,weatherlink.com 1.10,2013-01-22 08:59:00,
2013-01-22 03:13:00,46.4,37.0,30.20,NE,41,4.0,6.0,71,0.00,,,0.01,weatherlink.com 1.10,2013-01-22 09:13:00,
2013-01-22 03:28:00,46.1,37.0,30.20,NE,40,4.0,6.0,70,0.00,,,0.01,weatherlink.com 1.10,2013-01-22 09:28:00,
2013-01-22 03:43:00,45.8,37.0,30.20,NNE,23,1.0,6.0,70,0.00,,,0.01,weatherlink.com 1.10,2013-01-22 09:43:00,
2013-01-22 03:58:00,45.6,36.0,30.21,NNE,33,2.0,5.0,69,0.00,,,0.01,weatherlink.com 1.10,2013-01-22 09:58:00,
2013-01-22 04:13:00,45.2,36.0,30.22,NNE,28,0.0,5.0,69,0.00,,,0.01,weatherlink.com 1.10,2013-01-22 10:13:00,
2013-01-22 04:28:00,44.6,35.0,30.23,NNE,13,3.0,7.0,70,0.00,,,0.01,weatherlink.com 1.10,2013-01-22 10:28:00,
2013-01-22 04:43:00,44.1,34.0,30.23,NNE,24,0.0,6.0,69,0.00,,,0.01,weatherlink.com 1.10,2013-01-22 10:43:00,
2013-01-22 04:59:00,43.9,34.0,30.23,NNE,21,3.0,6.0,68,0.00,,,0.01,weatherlink.com 1.10,2013-01-22 10:59:00,
2013-01-22 05:13:00,43.7,34.0,30.24,NNE,30,0.0,4.0,68,0.00,,,0.01,weatherlink.com 1.10,2013-01-22 11:13:00,
2013-01-22 05:28:00,43.4,33.0,30.25,NNE,28,2.0,8.0,67,0.00,,,0.01,weatherlink.com 1.10,2013-01-22 11:28:00,
2013-01-22 05:43:00,43.1,33.0,30.24,NNE,30,0.0,6.0,68,0.00,,,0.01,weatherlink.com 1.10,2013-01-22 11:43:00,
2013-01-22 05:58:00,42.6,33.0,30.25,NNE,17,6.0,6.0,68,0.00,,,0.00,weatherlink.com 1.10,2013-01-22 11:58:00,
2013-01-22 06:13:00,42.1,33.0,30.25,NNE,32,8.0,8.0,69,0.00,,,0.00,weatherlink.com 1.10,2013-01-22 12:13:00,
2013-01-22 06:28:00,42.0,33.0,30.26,NNE,19,1.0,10.0,70,0.00,,,0.00,weatherlink.com 1.10,2013-01-22 12:28:00,
2013-01-22 06:43:00,41.8,33.0,30.27,NNE,23,5.0,9.0,70,0.00,,,0.00,weatherlink.com 1.10,2013-01-22 12:43:00,
2013-01-22 06:59:00,41.4,32.0,30.27,NNE,26,9.0,12.0,70,0.00,,,0.00,weatherlink.com 1.10,2013-01-22 12:59:00,
2013-01-22 07:13:00,41.3,32.0,30.28,NNE,28,7.0,12.0,70,0.00,,,0.00,weatherlink.com 1.10,2013-01-22 13:13:00,
2013-01-22 07:28:00,41.3,32.0,30.28,NNE,22,4.0,14.0,69,0.00,,,0.00,weatherlink.com 1.10,2013-01-22 13:28:00,
2013-01-22 07:43:00,41.4,32.0,30.30,North,5,8.0,12.0,68,0.00,,,0.00,weatherlink.com 1.10,2013-01-22 13:43:00,
2013-01-22 07:58:00,41.6,32.0,30.30,NNE,17,7.0,12.0,68,0.00,,,0.00,weatherlink.com 1.10,2013-01-22 13:58:00,
2013-01-22 08:13:00,41.7,31.0,30.31,NNE,30,8.0,13.0,67,0.00,,,0.00,weatherlink.com 1.10,2013-01-22 14:13:00,
2013-01-22 08:28:00,42.0,31.0,30.32,NNE,19,2.0,12.0,66,0.00,,,0.00,weatherlink.com 1.10,2013-01-22 14:28:00,
2013-01-22 08:43:00,42.7,31.0,30.32,NNE,17,9.0,14.0,63,0.00,,,0.00,weatherlink.com 1.10,2013-01-22 14:43:00,
2013-01-22 08:59:00,43.9,31.0,30.32,NE,42,4.0,12.0,60,0.00,,,0.00,weatherlink.com 1.10,2013-01-22 14:59:00,
2013-01-22 09:14:00,45.3,30.0,30.32,ENE,78,1.0,11.0,56,0.00,,,0.00,weatherlink.com 1.10,2013-01-22 15:14:00,
2013-01-22 09:29:00,46.8,30.0,30.33,NNE,24,6.0,10.0,53,0.00,,,0.00,weatherlink.com 1.10,2013-01-22 15:29:00,
2013-01-22 09:44:00,47.7,30.0,30.33,NE,40,2.0,10.0,50,0.00,,,0.00,weatherlink.com 1.10,2013-01-22 15:44:00,
2013-01-22 09:59:00,48.0,30.0,30.33,NE,44,1.0,10.0,50,0.00,,,0.00,weatherlink.com 1.10,2013-01-22 15:59:00,
2013-01-22 10:14:00,48.6,31.0,30.33,NE,42,3.0,5.0,50,0.00,,,0.00,weatherlink.com 1.10,2013-01-22 16:14:00,
2013-01-22 10:29:00,49.5,32.0,30.33,ENE,71,1.0,5.0,51,0.00,,,0.00,weatherlink.com 1.10,2013-01-22 16:29:00,
2013-01-22 10:44:00,50.0,32.0,30.33,SE,127,2.0,5.0,50,0.00,,,0.00,weatherlink.com 1.10,2013-01-22 16:44:00,
2013-01-22 10:59:00,49.6,33.0,30.33,SE,134,3.0,6.0,54,0.00,,,0.00,weatherlink.com 1.10,2013-01-22 16:59:00,
2013-01-22 11:14:00,49.9,35.0,30.33,SE,146,4.0,5.0,56,0.00,,,0.00,weatherlink.com 1.10,2013-01-22 17:14:00,
2013-01-22 11:29:00,49.7,35.0,30.32,SE,146,4.0,6.0,58,0.00,,,0.00,weatherlink.com 1.10,2013-01-22 17:29:00,
2013-01-22 11:44:00,49.7,36.0,30.32,SE,140,4.0,7.0,59,0.00,,,0.00,weatherlink.com 1.10,2013-01-22 17:44:00,
2013-01-22 11:59:00,50.0,36.0,30.31,SSE,167,4.0,6.0,60,0.00,,,0.00,weatherlink.com 1.10,2013-01-22 17:59:00,
2013-01-22 12:14:00,50.2,37.0,30.30,South,169,5.0,7.0,61,0.00,,,0.00,weatherlink.com 1.10,2013-01-22 18:14:00,
2013-01-22 12:29:00,50.4,37.0,30.29,South,175,5.0,8.0,61,0.00,,,0.00,weatherlink.com 1.10,2013-01-22 18:29:00,
2013-01-22 12:45:00,50.8,37.0,30.29,South,175,5.0,7.0,60,0.00,,,0.00,weatherlink.com 1.10,2013-01-22 18:45:00,
2013-01-22 12:59:00,51.4,38.0,30.28,South,176,2.0,6.0,61,0.00,,,0.00,weatherlink.com 1.10,2013-01-22 18:59:00,
2013-01-22 13:14:00,51.8,38.0,30.27,South,191,4.0,5.0,59,0.00,,,0.00,weatherlink.com 1.10,2013-01-22 19:14:00,
2013-01-22 13:29:00,51.8,38.0,30.27,SSW,200,4.0,6.0,60,0.00,,,0.00,weatherlink.com 1.10,2013-01-22 19:29:00,
2013-01-22 13:44:00,52.2,38.0,30.27,SSW,202,3.0,7.0,58,0.00,,,0.00,weatherlink.com 1.10,2013-01-22 19:44:00,
2013-01-22 13:59:00,52.3,38.0,30.26,SSW,198,1.0,6.0,58,0.00,,,0.00,weatherlink.com 1.10,2013-01-22 19:59:00,
2013-01-22 14:14:00,52.8,38.0,30.26,SSW,196,4.0,6.0,58,0.00,,,0.00,weatherlink.com 1.10,2013-01-22 20:14:00,
2013-01-22 14:29:00,52.9,40.0,30.26,SSW,203,3.0,7.0,61,0.00,,,0.00,weatherlink.com 1.10,2013-01-22 20:29:00,
2013-01-22 14:44:00,53.0,39.0,30.26,SSW,193,4.0,7.0,59,0.00,,,0.00,weatherlink.com 1.10,2013-01-22 20:44:00,
2013-01-22 14:59:00,53.3,40.0,30.26,SSW,203,5.0,7.0,60,0.00,,,0.00,weatherlink.com 1.10,2013-01-22 20:59:00,
2013-01-22 15:14:00,53.3,40.0,30.26,SSW,205,4.0,7.0,62,0.00,,,0.00,weatherlink.com 1.10,2013-01-22 21:14:00,
2013-01-22 15:44:00,53.3,42.0,30.27,South,189,6.0,7.0,65,0.00,,,0.00,weatherlink.com 1.10,2013-01-22 21:44:00,
2013-01-22 15:59:00,53.6,42.0,30.27,SSW,192,3.0,6.0,65,0.00,,,0.00,weatherlink.com 1.10,2013-01-22 21:59:00,
2013-01-22 16:14:00,53.6,41.0,30.27,SSW,196,4.0,5.0,62,0.00,,,0.00,weatherlink.com 1.10,2013-01-22 22:14:00,
2013-01-22 16:29:00,53.8,42.0,30.27,SSW,196,2.0,5.0,64,0.00,,,0.00,weatherlink.com 1.10,2013-01-22 22:29:00,
2013-01-22 16:44:00,53.8,42.0,30.27,SSW,197,3.0,5.0,65,0.00,,,0.00,weatherlink.com 1.10,2013-01-22 22:44:00,
2013-01-22 16:59:00,54.0,42.0,30.27,SSW,209,0.0,4.0,63,0.00,,,0.00,weatherlink.com 1.10,2013-01-22 22:59:00,
2013-01-22 17:14:00,53.8,42.0,30.27,SW,223,0.0,3.0,65,0.00,,,0.00,weatherlink.com 1.10,2013-01-22 23:14:00,
2013-01-22 17:29:00,53.5,43.0,30.27,SSW,213,0.0,4.0,67,0.00,,,0.00,weatherlink.com 1.10,2013-01-22 23:29:00,
2013-01-22 17:44:00,53.5,42.0,30.27,SW,224,0.0,1.0,66,0.00,,,0.00,weatherlink.com 1.10,2013-01-22 23:44:00,
2013-01-22 17:59:00,53.5,44.0,30.27,SW,224,0.0,0.0,69,0.00,,,0.00,weatherlink.com 1.10,2013-01-22 23:59:00,
2013-01-22 18:14:00,53.5,44.0,30.27,SW,224,0.0,0.0,70,0.00,,,0.00,weatherlink.com 1.10,2013-01-23 00:14:00,
2013-01-22 18:29:00,53.2,44.0,30.28,SW,224,0.0,0.0,71,0.00,,,0.00,weatherlink.com 1.10,2013-01-23 00:29:00,
2013-01-22 18:44:00,52.6,44.0,30.28,SW,224,0.0,0.0,73,0.00,,,0.00,weatherlink.com 1.10,2013-01-23 00:44:00,
2013-01-22 18:59:00,52.0,44.0,30.28,SW,224,0.0,0.0,74,0.00,,,0.00,weatherlink.com 1.10,2013-01-23 00:59:00,
2013-01-22 19:14:00,51.4,44.0,30.29,SW,224,0.0,0.0,75,0.00,,,0.00,weatherlink.com 1.10,2013-01-23 01:14:00,
2013-01-22 19:29:00,50.6,43.0,30.29,SW,224,0.0,0.0,75,0.00,,,0.00,weatherlink.com 1.10,2013-01-23 01:29:00,
2013-01-22 19:44:00,50.1,43.0,30.30,SW,224,0.0,0.0,76,0.00,,,0.00,weatherlink.com 1.10,2013-01-23 01:44:00,
2013-01-22 19:59:00,49.8,43.0,30.30,NE,43,0.0,0.0,76,0.00,,,0.00,weatherlink.com 1.10,2013-01-23 01:59:00,
2013-01-22 20:14:00,49.1,42.0,30.30,NNE,15,0.0,4.0,77,0.00,,,0.00,weatherlink.com 1.10,2013-01-23 02:14:00,
2013-01-22 20:29:00,50.1,43.0,30.30,NNE,15,0.0,3.0,77,0.00,,,0.00,weatherlink.com 1.10,2013-01-23 02:29:00,
2013-01-22 20:44:00,50.0,43.0,30.30,NNE,15,0.0,0.0,76,0.00,,,0.00,weatherlink.com 1.10,2013-01-23 02:44:00,
2013-01-22 20:59:00,50.6,44.0,30.31,NNE,15,0.0,0.0,77,0.00,,,0.00,weatherlink.com 1.10,2013-01-23 02:59:00,
2013-01-22 21:14:00,51.2,44.0,30.31,NNE,15,0.0,0.0,76,0.00,,,0.00,weatherlink.com 1.10,2013-01-23 03:14:00,
2013-01-22 21:29:00,50.3,43.0,30.31,NNE,15,0.0,0.0,75,0.00,,,0.00,weatherlink.com 1.10,2013-01-23 03:29:00,
2013-01-22 21:44:00,49.1,43.0,30.31,NNE,15,0.0,0.0,78,0.00,,,0.00,weatherlink.com 1.10,2013-01-23 03:44:00,
2013-01-22 21:59:00,49.9,43.0,30.32,NNE,15,0.0,0.0,78,0.00,,,0.00,weatherlink.com 1.10,2013-01-23 03:59:00,
2013-01-22 22:14:00,49.9,43.0,30.32,NNE,15,0.0,0.0,77,0.00,,,0.00,weatherlink.com 1.10,2013-01-23 04:14:00,
2013-01-22 22:29:00,49.5,43.0,30.32,NNE,15,0.0,0.0,77,0.00,,,0.00,weatherlink.com 1.10,2013-01-23 04:29:00,
2013-01-22 22:45:00,48.4,42.0,30.32,NNE,15,3.0,3.0,78,0.00,,,0.00,weatherlink.com 1.10,2013-01-23 04:45:00,
2013-01-22 23:00:00,48.6,42.0,30.32,NNE,15,0.0,0.0,79,0.00,,,0.00,weatherlink.com 1.10,2013-01-23 05:00:00,
2013-01-22 23:15:00,49.5,43.0,30.32,NNE,15,0.0,0.0,79,0.00,,,0.00,weatherlink.com 1.10,2013-01-23 05:15:00,
2013-01-22 23:30:00,49.7,43.0,30.32,NNE,15,0.0,0.0,79,0.00,,,0.00,weatherlink.com 1.10,2013-01-23 05:30:00,
2013-01-22 23:45:00,49.1,43.0,30.32,NNE,15,0.0,0.0,80,0.00,,,0.00,weatherlink.com 1.10,2013-01-23 05:45:00,